Back to catalog

GOKTURK 2

AliveMilitarySSO
NORAD 39030·PAYLOAD·🇹🇷 Turkey

Launched Dec 18, 2012 from Jiuquan Satellite Launch Center

Loading…

Next Passes (next 24 hours)

TLE

FreshSource: Space-Track

Epoch: Sep 14, 2026, 14:12 UTC

1 39030U 12073A   26257.59172579  .00000593  00000-0  93775-4 0  9997
2 39030  97.6781  90.5393 0002117  72.4425 287.7016 14.75613871737695

Track GOKTURK 2 in real time with AllMySat

Download on the App Store